Lexington Weather

Lexington, Massachusetts, USA

72°F
8/7/2020 11:02am 
  • Lexington Conditions: Clear
  • Temperature: 71.8°F / 22.1°CWarmer 2.4°F than last hour.
  • Dew Point: 63.5°FIncreased 2.0°Fsince last hour.
  • Relative Humidity: 75%Decreased 1.0% since last hour.
  • Wind: Wind from WSW WSW 1 mph, 10-min avg: Calm, gust: 2 mph
  • Barometer: 30.15 in Steady
  • Visibility: 10 miles
  • Rain Today: 0.00 in
  •   

Regional Weather Roundup
for Boston / Norton, MA

        
000
ASUS41 KBOX 061304
RWRBOX

REGIONAL WEATHER ROUNDUP
NATIONAL WEATHER SERVICE BOSTON/NORTON MA
900 AM EDT THU AUG 06 2020

NOTE:  "FAIR" INDICATES FEW OR NO CLOUDS BELOW 12,000 FEET WITH NO 
SIGNIFICANT WEATHER AND/OR OBSTRUCTIONS TO VISIBILITY.

MAZALL-061400-
EASTERN MASSACHUSETTS
  
CITY           SKY/WX    TMP DP  RH WIND       PRES   REMARKS
BOSTON         MOSUNNY   77  51  40 NW6       30.12S                  
BEVERLY        MOSUNNY   75  55  49 NW8       30.11S                  
LAWRENCE       SUNNY     73  56  54 W7        30.14S                  
BEDFORD        SUNNY     73  57  57 W5        30.12S                  
BLUE HILL        N/A     73  56  54 VRB5      30.13S                  
NORWOOD        SUNNY     77  56  48 CALM      30.12S                  
MARSHFIELD     SUNNY     81  54  39 VRB3      30.12R                  
PLYMOUTH       SUNNY     78  52  40 N7        30.12S                  
TAUNTON        SUNNY     78  56  46 NW5       30.12S                  
NEW BEDFORD    SUNNY     80  56  43 VRB3      30.12R                  
$$

MAZALL-061400-
CAPE COD AND THE ISLANDS
  
CITY           SKY/WX    TMP DP  RH WIND       PRES   REMARKS
FALMOUTH       NOT AVBL                                               
HYANNIS        SUNNY     79  53  40 N7        30.10F                  
CHATHAM        SUNNY     79  53  40 N5        30.13S                  
PROVINCETOWN   SUNNY     73  58  59 NW6       30.13R                  
NANTUCKET      MOSUNNY   78  56  46 NE12      30.12R                  
MARTHAS VNYRD  SUNNY     79  55  43 NE9       30.12R                  
$$
 
MAZALL-061400-
CENTRAL AND WESTERN MASSACHUSETTS
  
CITY           SKY/WX    TMP DP  RH WIND       PRES   REMARKS
WORCESTER      SUNNY     71  54  54 NW10      30.16R                  
FITCHBURG      SUNNY     74  54  49 NW9       30.14S                  
ORANGE         SUNNY     69  58  67 CALM      30.15S                  
SPRINGFIELD    PTSUNNY   69  58  68 CALM      30.13S                  
WESTFIELD      SUNNY     71  61  70 CALM      30.14S                  
NORTH ADAMS    NOT AVBL                                               
PITTSFIELD     PTSUNNY   67  58  72 W5        30.16R                  
$$
 
RIZALL-061400-
RHODE ISLAND
  
CITY           SKY/WX    TMP DP  RH WIND       PRES   REMARKS
PROVIDENCE     MOSUNNY   79  55  43 NE6       30.13S                  
NEWPORT        SUNNY     79  55  43 N7        30.13R                  
BLOCK ISLAND   SUNNY     73  63  70 N9        30.14R                  
SMITHFIELD     SUNNY     74  55  51 N5        30.15R                  
WESTERLY       SUNNY     77  57  50 VRB5      30.14R                  
$$
 
CTZALL-061400-
CONNECTICUT
  
CITY           SKY/WX    TMP DP  RH WIND       PRES   REMARKS
BRADLEY INTL   PTSUNNY   72  57  59 N5        30.13S                  
HARTFORD       NOT AVBL                                               
BRIDGEPORT     NOT AVBL                                               
DANBURY        MOSUNNY   73  57  57 N8        30.15R                  
GROTON         SUNNY     78  56  46 NE9       30.12R                  
NEW HAVEN      SUNNY     77  60  55 N7        30.12R                  
CHESTER        NOT AVBL                                               
MERIDEN        SUNNY     74  58  57 N5        30.12S                  
WILLIMANTIC    SUNNY     71  59  65 CALM      30.14R                  
OXFORD         SUNNY     71  58  63 N3        30.16R                  
$$

MEZ002-015-021-024-NHZ003-005-008-011-012-014-VTZ005-008-061400-
NORTHERN NEW ENGLAND
  
CITY           SKY/WX    TMP DP  RH WIND       PRES   REMARKS
PORTLAND ME    MOSUNNY   74  53  48 W12       30.09S                  
BANGOR ME      MOSUNNY   71  54  54 W12G20    30.06R                  
CONCORD NH     MOSUNNY   69  55  60 CALM      30.12S                  
MANCHESTER NH  MOSUNNY   71  57  61 CALM      30.11S                  
NASHUA NH      SUNNY     71  58  63 NW6       30.13S                  
PORTSMOUTH NH  MOSUNNY   72  53  50 SW7       30.09F                  
JAFFREY NH     SUNNY     69  53  56 W8        30.15S                  
KEENE NH       MOSUNNY   65  56  72 S3        30.15S                  
BURLINGTON VT  MOSUNNY   69  52  54 W8        30.12F                  
MT. WASHINGTON FOG       39  39 100 W55G64      N/A  VSB 1/16WCI  24  
$$

NYZ052-076-061400-
EASTERN NEW YORK
  
CITY           SKY/WX    TMP DP  RH WIND       PRES   REMARKS
ALBANY         PTSUNNY   63  58  83 NW6       30.16R                  
NEW YORK CITY  CLOUDY    74  61  63 NE10      30.11R                  
$$
 
ANZALL-061400-
MARINE OBSERVATIONS
  
STATION/POSITION TIME  TEMP    WIND        PRES    VSBY  WAVE
                       AIR SEA DIR/SP/G                  HT/PER
                 (UTC) (F)     (DEG/KT/KT) (MB)    (MI)  (FT/S)
BOSTON BUOY      1250   65 63  200/  2/  4 1019.0R         1/11
BUZZARDS BAY     1200           10/  8/  8 1020.8R
NANTUCKET SOUND  1240      76   30/ 10/ 12   N/A
MASS BAY-STELLWA NOT AVBL
ISLE OF SHOALS   1200   65     250/  7/  8 1019.0R
S OF BLOCK IS    1226      72                N/A           3/ 7
$$

......................KEY.........................
  SKY/WX - SKY CONDITION/PRESENT WEATHER
  TMP    - TEMPERATURE IN FAHRENHEIT
  DWPT   - DEWPOINT IN FAHRENHEIT
  RH     - RELATIVE HUMIDITY IN PERCENT
  WIND   - DIRECTION AND SPEED IN MPH
  PRES   - MEAN SEA LEVEL PRESSURE IN INCHES OF HG
  WCI    - WIND CHILL INDEX
  VSB    - VISIBILITY IN MILES
  HX     - HEAT INDEX
  TC     - TEMPERATURE IN CELSIUS
  VRB    - VARIABLE WIND DIRECTION
  N/A    - NOT AVAILABLE
  
      

Other recent Regional Weather Roundups

Fri Aug 7, 10:04am

Fri Aug 7, 9:04am

Fri Aug 7, 8:04am

Fri Aug 7, 7:04am

Fri Aug 7, 6:04am

Fri Aug 7, 5:04am

Fri Aug 7, 4:04am

Fri Aug 7, 3:04am

Fri Aug 7, 2:04am

Fri Aug 7, 1:05am

Fri Aug 7, 12:04am

Thu Aug 6, 11:04pm

Thu Aug 6, 10:04pm

Thu Aug 6, 9:04pm

Thu Aug 6, 8:04pm

Thu Aug 6, 7:04pm

Thu Aug 6, 6:04pm

Thu Aug 6, 5:04pm

Thu Aug 6, 4:05pm

Thu Aug 6, 3:04pm

Thu Aug 6, 2:05pm

Thu Aug 6, 1:04pm

Thu Aug 6, 12:04pm

Thu Aug 6, 11:04am

Thu Aug 6, 10:04am

Thu Aug 6, 8:04am

Thu Aug 6, 7:04am

Thu Aug 6, 6:04am

Thu Aug 6, 5:04am

Thu Aug 6, 4:04am

Thu Aug 6, 3:04am

Thu Aug 6, 2:05am

Thu Aug 6, 1:04am

Thu Aug 6, 12:04am

Wed Aug 5, 11:04pm

Wed Aug 5, 10:04pm

Wed Aug 5, 9:04pm

Wed Aug 5, 8:05pm

Wed Aug 5, 7:04pm

Wed Aug 5, 6:04pm

Wed Aug 5, 5:04pm

Wed Aug 5, 4:05pm

Wed Aug 5, 3:04pm

Wed Aug 5, 2:04pm

Wed Aug 5, 1:04pm

Wed Aug 5, 12:04pm

Wed Aug 5, 11:04am

Wed Aug 5, 10:04am

Wed Aug 5, 9:04am

Wed Aug 5, 8:04am

Wed Aug 5, 7:04am

Wed Aug 5, 6:04am

Wed Aug 5, 5:04am

Wed Aug 5, 4:04am

Wed Aug 5, 3:04am

Wed Aug 5, 2:05am

Wed Aug 5, 1:04am

Wed Aug 5, 12:05am

Tue Aug 4, 11:05pm

Tue Aug 4, 10:05pm

Tue Aug 4, 9:04pm

Tue Aug 4, 8:04pm

Tue Aug 4, 7:05pm

Tue Aug 4, 6:05pm

Tue Aug 4, 5:05pm

Tue Aug 4, 4:05pm

Tue Aug 4, 3:04pm

Tue Aug 4, 2:05pm

Tue Aug 4, 1:04pm

Tue Aug 4, 12:05pm

Tue Aug 4, 11:04am

Tue Aug 4, 10:04am

Tue Aug 4, 9:04am

Tue Aug 4, 8:04am

Tue Aug 4, 7:04am

Tue Aug 4, 6:04am

Tue Aug 4, 5:04am

Tue Aug 4, 4:04am

Tue Aug 4, 3:04am

Tue Aug 4, 2:04am

Tue Aug 4, 1:04am

Tue Aug 4, 12:04am

Mon Aug 3, 11:04pm

Mon Aug 3, 10:04pm

Mon Aug 3, 9:04pm

Mon Aug 3, 8:05pm

Mon Aug 3, 7:04pm

Mon Aug 3, 6:04pm

Mon Aug 3, 5:04pm

Mon Aug 3, 4:05pm

Mon Aug 3, 3:04pm

Mon Aug 3, 2:04pm

Mon Aug 3, 1:04pm

Mon Aug 3, 12:05pm

Mon Aug 3, 11:04am

Mon Aug 3, 10:04am

Mon Aug 3, 9:05am

Mon Aug 3, 8:04am

Mon Aug 3, 7:04am

Mon Aug 3, 6:04am

Mon Aug 3, 5:04am

Mon Aug 3, 4:04am

Mon Aug 3, 3:04am

Mon Aug 3, 2:04am

Mon Aug 3, 1:04am

Mon Aug 3, 12:05am

Sun Aug 2, 11:04pm

Sun Aug 2, 10:04pm

Sun Aug 2, 9:04pm

Sun Aug 2, 8:04pm

Sun Aug 2, 7:04pm

Sun Aug 2, 6:04pm

Sun Aug 2, 5:04pm

Sun Aug 2, 4:05pm

Sun Aug 2, 3:04pm

Sun Aug 2, 2:05pm

Sun Aug 2, 1:04pm

Sun Aug 2, 12:04pm

Sun Aug 2, 11:04am

Sun Aug 2, 10:04am

Sun Aug 2, 9:05am

Sun Aug 2, 8:05am

Sun Aug 2, 7:04am

Sun Aug 2, 6:04am

Sun Aug 2, 5:04am

Sun Aug 2, 4:05am

Sun Aug 2, 3:04am

Sun Aug 2, 2:04am

Sun Aug 2, 1:04am

Sun Aug 2, 12:05am

Sat Aug 1, 11:04pm

Sat Aug 1, 10:04pm

Sat Aug 1, 9:04pm

Sat Aug 1, 8:05pm

Sat Aug 1, 7:04pm

Sat Aug 1, 6:04pm

Sat Aug 1, 5:05pm

Sat Aug 1, 4:05pm

Sat Aug 1, 3:04pm

Sat Aug 1, 2:04pm

Sat Aug 1, 1:04pm

Sat Aug 1, 12:04pm

Sat Aug 1, 11:05am

Sat Aug 1, 10:05am

Sat Aug 1, 9:04am

Sat Aug 1, 8:04am

Sat Aug 1, 7:04am

Sat Aug 1, 6:04am

Sat Aug 1, 5:04am

Sat Aug 1, 4:05am

Sat Aug 1, 3:04am

Sat Aug 1, 2:04am

Sat Aug 1, 1:04am

Sat Aug 1, 12:05am

Fri Jul 31, 11:05pm

Fri Jul 31, 10:04pm

Fri Jul 31, 9:04pm

Fri Jul 31, 8:05pm

Fri Jul 31, 7:05pm

Fri Jul 31, 6:04pm

Fri Jul 31, 5:04pm

Fri Jul 31, 4:05pm

Fri Jul 31, 3:04pm

Fri Jul 31, 2:05pm

Fri Jul 31, 1:04pm

Fri Jul 31, 12:04pm

Fri Jul 31, 11:04am

Meta data:

ID: aae7d385-b966-4c95-bcdc-fcb326279bcd
Link: https://api.weather.gov/products/aae7d385-b966-4c95-bcdc-fcb326279bcd